owner,sensor,date,latitude,longitude,relative_humidity,qcFlag 
DISL,ioos:station:DISL:CATA:1,2011-04-15T21:00:00Z,30.3085,-88.1395,83.8,1111122 
DISL,ioos:station:DISL:CATA:1,2011-04-15T21:30:00Z,30.3085,-88.1395,85.1,1111122 
DISL,ioos:station:DISL:CATA:1,2011-04-15T22:00:00Z,30.3085,-88.1395,86.8,1111122 
DISL,ioos:station:DISL:CATA:1,2011-04-15T22:30:00Z,30.3085,-88.1395,87.1,1111122 
DISL,ioos:station:DISL:CATA:1,2011-04-15T23:00:00Z,30.3085,-88.1395,88.1,1111122 
DISL,ioos:station:DISL:CATA:1,2011-04-15T23:30:00Z,30.3085,-88.1395,89.5,1111122 
DISL,ioos:station:DISL:CATA:1,2011-04-16T00:00:00Z,30.3085,-88.1395,90.4,1111122 
DISL,ioos:station:DISL:CATA:1,2011-04-16T00:30:00Z,30.3085,-88.1395,90.9,1111122 
DISL,ioos:station:DISL:CATA:1,2011-04-16T01:00:00Z,30.3085,-88.1395,91.8,1111122 
DISL,ioos:station:DISL:CATA:1,2011-04-16T01:30:00Z,30.3085,-88.1395,92.6,1111122 
DISL,ioos:station:DISL:CATA:1,2011-04-16T02:00:00Z,30.3085,-88.1395,92.7,1111122 
DISL,ioos:station:DISL:CATA:1,2011-04-16T02:30:00Z,30.3085,-88.1395,91.4,1111122 
DISL,ioos:station:DISL:CATA:1,2011-04-16T03:00:00Z,30.3085,-88.1395,88.0,1111122 
DISL,ioos:station:DISL:CATA:1,2011-04-16T03:30:00Z,30.3085,-88.1395,89.3,1111122 
DISL,ioos:station:DISL:CATA:1,2011-04-16T04:00:00Z,30.3085,-88.1395,89.7,1111122 
DISL,ioos:station:DISL:CATA:1,2011-04-16T04:30:00Z,30.3085,-88.1395,90.8,1111122 
DISL,ioos:station:DISL:CATA:1,2011-04-16T05:00:00Z,30.3085,-88.1395,90.7,1111122 
DISL,ioos:station:DISL:CATA:1,2011-04-16T05:30:00Z,30.3085,-88.1395,91.7,1111122 
DISL,ioos:station:DISL:CATA:1,2011-04-16T06:00:00Z,30.3085,-88.1395,79.68,1111122 
DISL,ioos:station:DISL:CATA:1,2011-04-16T06:30:00Z,30.3085,-88.1395,58.77,1111122 
DISL,ioos:station:DISL:CATA:1,2011-04-16T07:00:00Z,30.3085,-88.1395,56.92,1111122 
DISL,ioos:station:DISL:CATA:1,2011-04-16T07:30:00Z,30.3085,-88.1395,48.24,1111122 
DISL,ioos:station:DISL:CATA:1,2011-04-16T08:00:00Z,30.3085,-88.1395,42.35,1111122 
DISL,ioos:station:DISL:CATA:1,2011-04-16T08:30:00Z,30.3085,-88.1395,43.0,1111122 
DISL,ioos:station:DISL:CATA:1,2011-04-16T09:00:00Z,30.3085,-88.1395,41.43,1111122 
DISL,ioos:station:DISL:CATA:1,2011-04-16T09:30:00Z,30.3085,-88.1395,44.31,1111122 
DISL,ioos:station:DISL:CATA:1,2011-04-16T10:00:00Z,30.3085,-88.1395,47.26,1111122 
DISL,ioos:station:DISL:CATA:1,2011-04-16T10:30:00Z,30.3085,-88.1395,39.9,1111122 
DISL,ioos:station:DISL:CATA:1,2011-04-16T11:00:00Z,30.3085,-88.1395,47.75,1111122 
DISL,ioos:station:DISL:CATA:1,2011-04-16T11:30:00Z,30.3085,-88.1395,50.26,1111122 
DISL,ioos:station:DISL:CATA:1,2011-04-16T12:00:00Z,30.3085,-88.1395,42.68,1111122 
DISL,ioos:station:DISL:CATA:1,2011-04-16T12:30:00Z,30.3085,-88.1395,46.07,1111122 
DISL,ioos:station:DISL:CATA:1,2011-04-16T13:00:00Z,30.3085,-88.1395,37.29,1111122 
DISL,ioos:station:DISL:CATA:1,2011-04-16T13:30:00Z,30.3085,-88.1395,38.63,1111122 
DISL,ioos:station:DISL:CATA:1,2011-04-16T14:00:00Z,30.3085,-88.1395,44.29,1111122 
DISL,ioos:station:DISL:CATA:1,2011-04-16T14:30:00Z,30.3085,-88.1395,36.84,1111122 
DISL,ioos:station:DISL:CATA:1,2011-04-16T15:00:00Z,30.3085,-88.1395,39.66,1111122 
DISL,ioos:station:DISL:CATA:1,2011-04-16T15:30:00Z,30.3085,-88.1395,26.93,1111122 
DISL,ioos:station:DISL:CATA:1,2011-04-16T16:00:00Z,30.3085,-88.1395,29.47,1111122 
DISL,ioos:station:DISL:CATA:1,2011-04-16T16:30:00Z,30.3085,-88.1395,30.22,1111122 
DISL,ioos:station:DISL:CATA:1,2011-04-16T17:00:00Z,30.3085,-88.1395,35.12,1111122 
DISL,ioos:station:DISL:CATA:1,2011-04-16T17:30:00Z,30.3085,-88.1395,39.88,1111122 
DISL,ioos:station:DISL:CATA:1,2011-04-16T18:00:00Z,30.3085,-88.1395,36.15,1111122 
DISL,ioos:station:DISL:CATA:1,2011-04-16T18:30:00Z,30.3085,-88.1395,37.0,1111122 
DISL,ioos:station:DISL:CATA:1,2011-04-16T19:00:00Z,30.3085,-88.1395,39.03,1111122 
DISL,ioos:station:DISL:CATA:1,2011-04-16T19:30:00Z,30.3085,-88.1395,45.3,1111122 
DISL,ioos:station:DISL:CATA:1,2011-04-16T20:00:00Z,30.3085,-88.1395,46.09,1111122 
DISL,ioos:station:DISL:CATA:1,2011-04-16T20:30:00Z,30.3085,-88.1395,43.28,1111122 
DISL,ioos:station:DISL:CATA:1,2011-04-16T21:00:00Z,30.3085,-88.1395,47.43,1111122 
DISL,ioos:station:DISL:CATA:1,2011-04-16T21:30:00Z,30.3085,-88.1395,46.88,1111122 
DISL,ioos:station:DISL:CATA:1,2011-04-16T22:00:00Z,30.3085,-88.1395,48.39,1111122 
DISL,ioos:station:DISL:CATA:1,2011-04-16T22:30:00Z,30.3085,-88.1395,30.66,1111122 
DISL,ioos:station:DISL:CATA:1,2011-04-16T23:00:00Z,30.3085,-88.1395,35.32,1111122 
DISL,ioos:station:DISL:CATA:1,2011-04-16T23:30:00Z,30.3085,-88.1395,30.65,1111122 
DISL,ioos:station:DISL:CATA:1,2011-04-17T00:00:00Z,30.3085,-88.1395,33.12,1111122 
DISL,ioos:station:DISL:CATA:1,2011-04-17T00:30:00Z,30.3085,-88.1395,43.76,1111122 
DISL,ioos:station:DISL:CATA:1,2011-04-17T01:00:00Z,30.3085,-88.1395,51.17,1111122 
DISL,ioos:station:DISL:CATA:1,2011-04-17T01:30:00Z,30.3085,-88.1395,44.38,1111122 
DISL,ioos:station:DISL:CATA:1,2011-04-17T02:00:00Z,30.3085,-88.1395,51.76,1111122 
DISL,ioos:station:DISL:CATA:1,2011-04-17T02:30:00Z,30.3085,-88.1395,56.54,1111122 
DISL,ioos:station:DISL:CATA:1,2011-04-17T03:00:00Z,30.3085,-88.1395,48.27,1111122 
DISL,ioos:station:DISL:CATA:1,2011-04-17T03:30:00Z,30.3085,-88.1395,54.41,1111122 
DISL,ioos:station:DISL:CATA:1,2011-04-17T04:00:00Z,30.3085,-88.1395,53.73,1111122 
DISL,ioos:station:DISL:CATA:1,2011-04-17T04:30:00Z,30.3085,-88.1395,55.31,1111122 
DISL,ioos:station:DISL:CATA:1,2011-04-17T05:00:00Z,30.3085,-88.1395,56.28,1111122 
DISL,ioos:station:DISL:CATA:1,2011-04-17T05:30:00Z,30.3085,-88.1395,59.81,1111122 
DISL,ioos:station:DISL:CATA:1,2011-04-17T06:00:00Z,30.3085,-88.1395,57.45,1111122 
DISL,ioos:station:DISL:CATA:1,2011-04-17T06:30:00Z,30.3085,-88.1395,57.76,1111122 
DISL,ioos:station:DISL:CATA:1,2011-04-17T07:00:00Z,30.3085,-88.1395,58.3,1111122 
DISL,ioos:station:DISL:CATA:1,2011-04-17T07:30:00Z,30.3085,-88.1395,62.18,1111122 
DISL,ioos:station:DISL:CATA:1,2011-04-17T08:00:00Z,30.3085,-88.1395,68.81,1111122 
DISL,ioos:station:DISL:CATA:1,2011-04-17T08:30:00Z,30.3085,-88.1395,69.15,1111122 
DISL,ioos:station:DISL:CATA:1,2011-04-17T09:00:00Z,30.3085,-88.1395,69.5,1111122 
DISL,ioos:station:DISL:CATA:1,2011-04-17T09:30:00Z,30.3085,-88.1395,72.12,1111122 
DISL,ioos:station:DISL:CATA:1,2011-04-17T10:00:00Z,30.3085,-88.1395,72.4,1111122 
DISL,ioos:station:DISL:CATA:1,2011-04-17T10:30:00Z,30.3085,-88.1395,64.73,1111122 
DISL,ioos:station:DISL:CATA:1,2011-04-17T11:00:00Z,30.3085,-88.1395,61.74,1111122 
DISL,ioos:station:DISL:CATA:1,2011-04-17T11:30:00Z,30.3085,-88.1395,63.32,1111122 
DISL,ioos:station:DISL:CATA:1,2011-04-17T12:00:00Z,30.3085,-88.1395,60.16,1111122 
DISL,ioos:station:DISL:CATA:1,2011-04-17T12:30:00Z,30.3085,-88.1395,65.03,1111122 
DISL,ioos:station:DISL:CATA:1,2011-04-17T13:00:00Z,30.3085,-88.1395,62.73,1111122 
DISL,ioos:station:DISL:CATA:1,2011-04-17T13:30:00Z,30.3085,-88.1395,69.73,1111122 
DISL,ioos:station:DISL:CATA:1,2011-04-17T14:00:00Z,30.3085,-88.1395,64.14,1111122 
DISL,ioos:station:DISL:CATA:1,2011-04-17T14:30:00Z,30.3085,-88.1395,60.26,1111122 
DISL,ioos:station:DISL:CATA:1,2011-04-17T15:00:00Z,30.3085,-88.1395,62.46,1111122 
DISL,ioos:station:DISL:CATA:1,2011-04-17T15:30:00Z,30.3085,-88.1395,58.85,1111122 
DISL,ioos:station:DISL:CATA:1,2011-04-17T16:00:00Z,30.3085,-88.1395,55.93,1111122 
DISL,ioos:station:DISL:CATA:1,2011-04-17T16:30:00Z,30.3085,-88.1395,57.02,1111122 
DISL,ioos:station:DISL:CATA:1,2011-04-17T17:00:00Z,30.3085,-88.1395,56.88,1111122 
DISL,ioos:station:DISL:CATA:1,2011-04-17T17:30:00Z,30.3085,-88.1395,51.2,1111122 
DISL,ioos:station:DISL:CATA:1,2011-04-17T18:00:00Z,30.3085,-88.1395,48.66,1111122 
DISL,ioos:station:DISL:CATA:1,2011-04-17T18:30:00Z,30.3085,-88.1395,44.02,1111122 
DISL,ioos:station:DISL:CATA:1,2011-04-17T19:00:00Z,30.3085,-88.1395,54.92,1111122 
DISL,ioos:station:DISL:CATA:1,2011-04-17T19:30:00Z,30.3085,-88.1395,52.81,1111122 
DISL,ioos:station:DISL:CATA:1,2011-04-17T20:00:00Z,30.3085,-88.1395,57.41,1111122 
DISL,ioos:station:DISL:CATA:1,2011-04-17T20:30:00Z,30.3085,-88.1395,52.02,1111122 
DISL,ioos:station:DISL:CATA:1,2011-04-17T21:00:00Z,30.3085,-88.1395,52.61,1111122 
DISL,ioos:station:DISL:CATA:1,2011-04-17T21:30:00Z,30.3085,-88.1395,53.77,1111122 
DISL,ioos:station:DISL:CATA:1,2011-04-17T22:00:00Z,30.3085,-88.1395,54.01,1111122 
DISL,ioos:station:DISL:CATA:1,2011-04-17T22:30:00Z,30.3085,-88.1395,48.18,1111122 
DISL,ioos:station:DISL:CATA:1,2011-04-17T23:00:00Z,30.3085,-88.1395,54.49,1111122 
DISL,ioos:station:DISL:CATA:1,2011-04-17T23:30:00Z,30.3085,-88.1395,58.44,1111122 
DISL,ioos:station:DISL:CATA:1,2011-04-18T00:00:00Z,30.3085,-88.1395,55.02,1111122 
DISL,ioos:station:DISL:CATA:1,2011-04-18T00:30:00Z,30.3085,-88.1395,56.23,1111122 
DISL,ioos:station:DISL:CATA:1,2011-04-18T01:00:00Z,30.3085,-88.1395,59.01,1111122 
DISL,ioos:station:DISL:CATA:1,2011-04-18T01:30:00Z,30.3085,-88.1395,61.1,1111122 
DISL,ioos:station:DISL:CATA:1,2011-04-18T02:00:00Z,30.3085,-88.1395,61.2,1111122 
DISL,ioos:station:DISL:CATA:1,2011-04-18T02:30:00Z,30.3085,-88.1395,62.2,1111122 
DISL,ioos:station:DISL:CATA:1,2011-04-18T03:00:00Z,30.3085,-88.1395,61.44,1111122 
DISL,ioos:station:DISL:CATA:1,2011-04-18T03:30:00Z,30.3085,-88.1395,61.44,1111122 
DISL,ioos:station:DISL:CATA:1,2011-04-18T04:00:00Z,30.3085,-88.1395,66.0,1111122 
DISL,ioos:station:DISL:CATA:1,2011-04-18T04:30:00Z,30.3085,-88.1395,63.95,1111122 
DISL,ioos:station:DISL:CATA:1,2011-04-18T05:00:00Z,30.3085,-88.1395,64.94,1111122 
DISL,ioos:station:DISL:CATA:1,2011-04-18T05:30:00Z,30.3085,-88.1395,69.06,1111122 
DISL,ioos:station:DISL:CATA:1,2011-04-18T06:00:00Z,30.3085,-88.1395,68.1,1111122 
DISL,ioos:station:DISL:CATA:1,2011-04-18T06:30:00Z,30.3085,-88.1395,72.45,1111122 
DISL,ioos:station:DISL:CATA:1,2011-04-18T07:00:00Z,30.3085,-88.1395,73.65,1111122 
DISL,ioos:station:DISL:CATA:1,2011-04-18T07:30:00Z,30.3085,-88.1395,71.25,1111122 
DISL,ioos:station:DISL:CATA:1,2011-04-18T08:00:00Z,30.3085,-88.1395,75.85,1111122 
DISL,ioos:station:DISL:CATA:1,2011-04-18T08:30:00Z,30.3085,-88.1395,78.46,1111122 
DISL,ioos:station:DISL:CATA:1,2011-04-18T09:00:00Z,30.3085,-88.1395,78.77,1111122 
DISL,ioos:station:DISL:CATA:1,2011-04-18T09:30:00Z,30.3085,-88.1395,80.0,1111122 
DISL,ioos:station:DISL:CATA:1,2011-04-18T10:00:00Z,30.3085,-88.1395,80.9,1111122 
DISL,ioos:station:DISL:CATA:1,2011-04-18T10:30:00Z,30.3085,-88.1395,82.6,1111122 
DISL,ioos:station:DISL:CATA:1,2011-04-18T11:00:00Z,30.3085,-88.1395,82.0,1111122 
DISL,ioos:station:DISL:CATA:1,2011-04-18T11:30:00Z,30.3085,-88.1395,82.2,1111122 
DISL,ioos:station:DISL:CATA:1,2011-04-18T12:00:00Z,30.3085,-88.1395,80.5,1111122 
DISL,ioos:station:DISL:CATA:1,2011-04-18T12:30:00Z,30.3085,-88.1395,77.91,1111122 
DISL,ioos:station:DISL:CATA:1,2011-04-18T13:00:00Z,30.3085,-88.1395,76.65,1111122 
DISL,ioos:station:DISL:CATA:1,2011-04-18T13:30:00Z,30.3085,-88.1395,76.51,1111122 
DISL,ioos:station:DISL:CATA:1,2011-04-18T14:00:00Z,30.3085,-88.1395,77.61,1111122 
DISL,ioos:station:DISL:CATA:1,2011-04-18T14:30:00Z,30.3085,-88.1395,77.88,1111122 
DISL,ioos:station:DISL:CATA:1,2011-04-18T15:00:00Z,30.3085,-88.1395,77.46,1111122 
DISL,ioos:station:DISL:CATA:1,2011-04-18T15:30:00Z,30.3085,-88.1395,78.42,1111122 
DISL,ioos:station:DISL:CATA:1,2011-04-18T16:00:00Z,30.3085,-88.1395,79.1,1111122 
DISL,ioos:station:DISL:CATA:1,2011-04-18T16:30:00Z,30.3085,-88.1395,78.34,1111122 
DISL,ioos:station:DISL:CATA:1,2011-04-18T17:00:00Z,30.3085,-88.1395,78.2,1111122 
DISL,ioos:station:DISL:CATA:1,2011-04-18T17:30:00Z,30.3085,-88.1395,77.89,1111122 
DISL,ioos:station:DISL:CATA:1,2011-04-18T18:00:00Z,30.3085,-88.1395,74.15,1111122 
DISL,ioos:station:DISL:CATA:1,2011-04-18T18:30:00Z,30.3085,-88.1395,75.25,1111122 
DISL,ioos:station:DISL:CATA:1,2011-04-18T19:00:00Z,30.3085,-88.1395,76.65,1111122 
DISL,ioos:station:DISL:CATA:1,2011-04-18T19:30:00Z,30.3085,-88.1395,75.49,1111122 
DISL,ioos:station:DISL:CATA:1,2011-04-18T20:00:00Z,30.3085,-88.1395,75.42,1111122 
DISL,ioos:station:DISL:CATA:1,2011-04-18T20:30:00Z,30.3085,-88.1395,74.32,1111122 
DISL,ioos:station:DISL:CATA:1,2011-04-18T21:00:00Z,30.3085,-88.1395,74.56,1111122 
DISL,ioos:station:DISL:CATA:1,2011-04-18T21:30:00Z,30.3085,-88.1395,75.83,1111122 
DISL,ioos:station:DISL:CATA:1,2011-04-18T22:00:00Z,30.3085,-88.1395,77.1,1111122 
DISL,ioos:station:DISL:CATA:1,2011-04-18T22:30:00Z,30.3085,-88.1395,79.09,1111122 
DISL,ioos:station:DISL:CATA:1,2011-04-18T23:00:00Z,30.3085,-88.1395,78.92,1111122 
DISL,ioos:station:DISL:CATA:1,2011-04-18T23:30:00Z,30.3085,-88.1395,84.8,1111122 
DISL,ioos:station:DISL:CATA:1,2011-04-19T00:00:00Z,30.3085,-88.1395,85.4,1111122 
DISL,ioos:station:DISL:CATA:1,2011-04-19T00:30:00Z,30.3085,-88.1395,86.7,1111122 
DISL,ioos:station:DISL:CATA:1,2011-04-19T01:00:00Z,30.3085,-88.1395,87.3,1111122 
DISL,ioos:station:DISL:CATA:1,2011-04-19T01:30:00Z,30.3085,-88.1395,88.2,1111122 
DISL,ioos:station:DISL:CATA:1,2011-04-19T02:00:00Z,30.3085,-88.1395,88.6,1111122 
DISL,ioos:station:DISL:CATA:1,2011-04-19T02:30:00Z,30.3085,-88.1395,89.2,1111122 
DISL,ioos:station:DISL:CATA:1,2011-04-19T03:00:00Z,30.3085,-88.1395,89.5,1111122 
DISL,ioos:station:DISL:CATA:1,2011-04-19T03:30:00Z,30.3085,-88.1395,89.0,1111122 
DISL,ioos:station:DISL:CATA:1,2011-04-19T04:00:00Z,30.3085,-88.1395,90.0,1111122 
DISL,ioos:station:DISL:CATA:1,2011-04-19T04:30:00Z,30.3085,-88.1395,90.1,1111122 
DISL,ioos:station:DISL:CATA:1,2011-04-19T05:00:00Z,30.3085,-88.1395,90.7,1111122 
DISL,ioos:station:DISL:CATA:1,2011-04-19T05:30:00Z,30.3085,-88.1395,91.4,1111122 
DISL,ioos:station:DISL:CATA:1,2011-04-19T06:00:00Z,30.3085,-88.1395,91.7,1111122 
DISL,ioos:station:DISL:CATA:1,2011-04-19T06:30:00Z,30.3085,-88.1395,92.0,1111122 
DISL,ioos:station:DISL:CATA:1,2011-04-19T07:00:00Z,30.3085,-88.1395,92.1,1111122 
DISL,ioos:station:DISL:CATA:1,2011-04-19T07:30:00Z,30.3085,-88.1395,92.4,1111122 
DISL,ioos:station:DISL:CATA:1,2011-04-19T08:00:00Z,30.3085,-88.1395,92.9,1111122 
DISL,ioos:station:DISL:CATA:1,2011-04-19T08:30:00Z,30.3085,-88.1395,93.3,1111122 
DISL,ioos:station:DISL:CATA:1,2011-04-19T09:00:00Z,30.3085,-88.1395,93.7,1111122 
DISL,ioos:station:DISL:CATA:1,2011-04-19T09:30:00Z,30.3085,-88.1395,94.0,1111122 
DISL,ioos:station:DISL:CATA:1,2011-04-19T10:00:00Z,30.3085,-88.1395,94.1,1111122 
DISL,ioos:station:DISL:CATA:1,2011-04-19T10:30:00Z,30.3085,-88.1395,94.3,1111122 
DISL,ioos:station:DISL:CATA:1,2011-04-19T11:00:00Z,30.3085,-88.1395,94.3,1111122 
DISL,ioos:station:DISL:CATA:1,2011-04-19T11:30:00Z,30.3085,-88.1395,94.5,1111122 
DISL,ioos:station:DISL:CATA:1,2011-04-19T12:00:00Z,30.3085,-88.1395,94.3,1111122 
DISL,ioos:station:DISL:CATA:1,2011-04-19T12:30:00Z,30.3085,-88.1395,93.4,1111122 
DISL,ioos:station:DISL:CATA:1,2011-04-19T13:00:00Z,30.3085,-88.1395,92.2,1111122 
DISL,ioos:station:DISL:CATA:1,2011-04-19T13:30:00Z,30.3085,-88.1395,88.7,1111122 
DISL,ioos:station:DISL:CATA:1,2011-04-19T14:00:00Z,30.3085,-88.1395,87.4,1111122 
DISL,ioos:station:DISL:CATA:1,2011-04-19T14:30:00Z,30.3085,-88.1395,85.3,1111122 
DISL,ioos:station:DISL:CATA:1,2011-04-19T15:00:00Z,30.3085,-88.1395,84.3,1111122 
DISL,ioos:station:DISL:CATA:1,2011-04-19T15:30:00Z,30.3085,-88.1395,82.7,1111122 
DISL,ioos:station:DISL:CATA:1,2011-04-19T16:00:00Z,30.3085,-88.1395,83.0,1111122 
DISL,ioos:station:DISL:CATA:1,2011-04-19T16:30:00Z,30.3085,-88.1395,83.1,1111122 
DISL,ioos:station:DISL:CATA:1,2011-04-19T17:00:00Z,30.3085,-88.1395,83.6,1111122 
DISL,ioos:station:DISL:CATA:1,2011-04-19T17:30:00Z,30.3085,-88.1395,83.5,1111122 
DISL,ioos:station:DISL:CATA:1,2011-04-19T18:00:00Z,30.3085,-88.1395,83.8,1111122 
DISL,ioos:station:DISL:CATA:1,2011-04-19T18:30:00Z,30.3085,-88.1395,87.9,1111122 
DISL,ioos:station:DISL:CATA:1,2011-04-19T19:00:00Z,30.3085,-88.1395,87.7,1111122 
DISL,ioos:station:DISL:CATA:1,2011-04-19T19:30:00Z,30.3085,-88.1395,86.3,1111122 
DISL,ioos:station:DISL:CATA:1,2011-04-19T20:00:00Z,30.3085,-88.1395,85.7,1111122 
DISL,ioos:station:DISL:CATA:1,2011-04-19T20:30:00Z,30.3085,-88.1395,87.6,1111122 
DISL,ioos:station:DISL:CATA:1,2011-04-19T21:00:00Z,30.3085,-88.1395,87.1,1111122 
DISL,ioos:station:DISL:CATA:1,2011-04-19T21:30:00Z,30.3085,-88.1395,88.0,1111122 
DISL,ioos:station:DISL:CATA:1,2011-04-19T22:00:00Z,30.3085,-88.1395,88.4,1111122 
DISL,ioos:station:DISL:CATA:1,2011-04-19T22:30:00Z,30.3085,-88.1395,89.2,1111122 
DISL,ioos:station:DISL:CATA:1,2011-04-19T23:00:00Z,30.3085,-88.1395,90.2,1111122 
DISL,ioos:station:DISL:CATA:1,2011-04-19T23:30:00Z,30.3085,-88.1395,90.9,1111122 
DISL,ioos:station:DISL:CATA:1,2011-04-20T00:00:00Z,30.3085,-88.1395,91.6,1111122 
DISL,ioos:station:DISL:CATA:1,2011-04-20T00:30:00Z,30.3085,-88.1395,93.4,1111122 
DISL,ioos:station:DISL:CATA:1,2011-04-20T01:00:00Z,30.3085,-88.1395,93.1,1111122 
DISL,ioos:station:DISL:CATA:1,2011-04-20T01:30:00Z,30.3085,-88.1395,93.0,1111122 
DISL,ioos:station:DISL:CATA:1,2011-04-20T02:00:00Z,30.3085,-88.1395,92.2,1111122 
DISL,ioos:station:DISL:CATA:1,2011-04-20T02:30:00Z,30.3085,-88.1395,91.5,1111122 
DISL,ioos:station:DISL:CATA:1,2011-04-20T03:00:00Z,30.3085,-88.1395,92.0,1111122 
DISL,ioos:station:DISL:CATA:1,2011-04-20T03:30:00Z,30.3085,-88.1395,92.1,1111122 
DISL,ioos:station:DISL:CATA:1,2011-04-20T04:00:00Z,30.3085,-88.1395,92.7,1111122 
DISL,ioos:station:DISL:CATA:1,2011-04-20T04:30:00Z,30.3085,-88.1395,92.6,1111122 
DISL,ioos:station:DISL:CATA:1,2011-04-20T05:00:00Z,30.3085,-88.1395,93.2,1111122 
DISL,ioos:station:DISL:CATA:1,2011-04-20T05:30:00Z,30.3085,-88.1395,93.4,1111122 
DISL,ioos:station:DISL:CATA:1,2011-04-20T06:00:00Z,30.3085,-88.1395,93.3,1111122 
DISL,ioos:station:DISL:CATA:1,2011-04-20T06:30:00Z,30.3085,-88.1395,93.3,1111122 
DISL,ioos:station:DISL:CATA:1,2011-04-20T07:00:00Z,30.3085,-88.1395,93.7,1111122 
DISL,ioos:station:DISL:CATA:1,2011-04-20T07:30:00Z,30.3085,-88.1395,93.6,1111122 
DISL,ioos:station:DISL:CATA:1,2011-04-20T08:00:00Z,30.3085,-88.1395,94.0,1111122 
DISL,ioos:station:DISL:CATA:1,2011-04-20T08:30:00Z,30.3085,-88.1395,94.2,1111122 
DISL,ioos:station:DISL:CATA:1,2011-04-20T09:00:00Z,30.3085,-88.1395,94.2,1111122 
DISL,ioos:station:DISL:CATA:1,2011-04-20T09:30:00Z,30.3085,-88.1395,94.7,1111122 
DISL,ioos:station:DISL:CATA:1,2011-04-20T10:00:00Z,30.3085,-88.1395,94.9,1111122 
DISL,ioos:station:DISL:CATA:1,2011-04-20T10:30:00Z,30.3085,-88.1395,95.2,1111122 
DISL,ioos:station:DISL:CATA:1,2011-04-20T11:00:00Z,30.3085,-88.1395,95.4,1111122 
DISL,ioos:station:DISL:CATA:1,2011-04-20T11:30:00Z,30.3085,-88.1395,95.6,1111122 
DISL,ioos:station:DISL:CATA:1,2011-04-20T12:00:00Z,30.3085,-88.1395,95.8,1111122 
DISL,ioos:station:DISL:CATA:1,2011-04-20T12:30:00Z,30.3085,-88.1395,95.7,1111122 
DISL,ioos:station:DISL:CATA:1,2011-04-20T13:00:00Z,30.3085,-88.1395,95.8,1111122 
DISL,ioos:station:DISL:CATA:1,2011-04-20T13:30:00Z,30.3085,-88.1395,94.9,1111122 
DISL,ioos:station:DISL:CATA:1,2011-04-20T14:00:00Z,30.3085,-88.1395,93.9,1111122 
DISL,ioos:station:DISL:CATA:1,2011-04-20T14:30:00Z,30.3085,-88.1395,94.8,1111122 
DISL,ioos:station:DISL:CATA:1,2011-04-20T15:00:00Z,30.3085,-88.1395,94.1,1111122 
DISL,ioos:station:DISL:CATA:1,2011-04-20T15:30:00Z,30.3085,-88.1395,93.4,1111122 
DISL,ioos:station:DISL:CATA:1,2011-04-20T16:00:00Z,30.3085,-88.1395,93.3,1111122 
DISL,ioos:station:DISL:CATA:1,2011-04-20T16:30:00Z,30.3085,-88.1395,93.7,1111122 
DISL,ioos:station:DISL:CATA:1,2011-04-20T17:00:00Z,30.3085,-88.1395,94.1,1111122 
DISL,ioos:station:DISL:CATA:1,2011-04-20T17:30:00Z,30.3085,-88.1395,92.8,1111122 
DISL,ioos:station:DISL:CATA:1,2011-04-20T18:00:00Z,30.3085,-88.1395,90.1,1111122 
DISL,ioos:station:DISL:CATA:1,2011-04-20T18:30:00Z,30.3085,-88.1395,88.7,1111122 
DISL,ioos:station:DISL:CATA:1,2011-04-20T19:00:00Z,30.3085,-88.1395,87.9,1111122 
DISL,ioos:station:DISL:CATA:1,2011-04-20T19:30:00Z,30.3085,-88.1395,86.3,1111122 
DISL,ioos:station:DISL:CATA:1,2011-04-20T20:00:00Z,30.3085,-88.1395,87.7,1111122 
DISL,ioos:station:DISL:CATA:1,2011-04-20T20:30:00Z,30.3085,-88.1395,88.0,1111122 
DISL,ioos:station:DISL:CATA:1,2011-04-20T21:00:00Z,30.3085,-88.1395,87.6,1111122 
DISL,ioos:station:DISL:CATA:1,2011-04-20T21:30:00Z,30.3085,-88.1395,87.3,1111122 
DISL,ioos:station:DISL:CATA:1,2011-04-20T22:00:00Z,30.3085,-88.1395,87.0,1111122 
DISL,ioos:station:DISL:CATA:1,2011-04-20T22:30:00Z,30.3085,-88.1395,87.9,1111122 
DISL,ioos:station:DISL:CATA:1,2011-04-20T23:00:00Z,30.3085,-88.1395,85.7,1111122 
DISL,ioos:station:DISL:CATA:1,2011-04-20T23:30:00Z,30.3085,-88.1395,86.0,1111122 
DISL,ioos:station:DISL:CATA:1,2011-04-21T00:00:00Z,30.3085,-88.1395,90.2,1111122 
DISL,ioos:station:DISL:CATA:1,2011-04-21T00:30:00Z,30.3085,-88.1395,94.5,1111122 
DISL,ioos:station:DISL:CATA:1,2011-04-21T01:00:00Z,30.3085,-88.1395,94.7,1111122 
DISL,ioos:station:DISL:CATA:1,2011-04-21T01:30:00Z,30.3085,-88.1395,94.2,1111122 
DISL,ioos:station:DISL:CATA:1,2011-04-21T02:00:00Z,30.3085,-88.1395,94.2,1111122 
DISL,ioos:station:DISL:CATA:1,2011-04-21T02:30:00Z,30.3085,-88.1395,94.2,1111122 
DISL,ioos:station:DISL:CATA:1,2011-04-21T03:00:00Z,30.3085,-88.1395,93.8,1111122 
DISL,ioos:station:DISL:CATA:1,2011-04-21T03:30:00Z,30.3085,-88.1395,93.7,1111122 
DISL,ioos:station:DISL:CATA:1,2011-04-21T04:00:00Z,30.3085,-88.1395,93.9,1111122 
DISL,ioos:station:DISL:CATA:1,2011-04-21T04:30:00Z,30.3085,-88.1395,93.5,1111122 
DISL,ioos:station:DISL:CATA:1,2011-04-21T05:00:00Z,30.3085,-88.1395,93.8,1111122 
DISL,ioos:station:DISL:CATA:1,2011-04-21T05:30:00Z,30.3085,-88.1395,93.5,1111122 
DISL,ioos:station:DISL:CATA:1,2011-04-21T06:00:00Z,30.3085,-88.1395,93.6,1111122 
DISL,ioos:station:DISL:CATA:1,2011-04-21T06:30:00Z,30.3085,-88.1395,93.5,1111122 
DISL,ioos:station:DISL:CATA:1,2011-04-21T07:00:00Z,30.3085,-88.1395,93.4,1111122 
DISL,ioos:station:DISL:CATA:1,2011-04-21T07:30:00Z,30.3085,-88.1395,93.2,1111122 
DISL,ioos:station:DISL:CATA:1,2011-04-21T08:00:00Z,30.3085,-88.1395,93.2,1111122 
DISL,ioos:station:DISL:CATA:1,2011-04-21T08:30:00Z,30.3085,-88.1395,93.7,1111122 
DISL,ioos:station:DISL:CATA:1,2011-04-21T09:00:00Z,30.3085,-88.1395,93.9,1111122 
DISL,ioos:station:DISL:CATA:1,2011-04-21T09:30:00Z,30.3085,-88.1395,93.8,1111122 
DISL,ioos:station:DISL:CATA:1,2011-04-21T10:00:00Z,30.3085,-88.1395,93.6,1111122 
DISL,ioos:station:DISL:CATA:1,2011-04-21T10:30:00Z,30.3085,-88.1395,94.0,1111122 
DISL,ioos:station:DISL:CATA:1,2011-04-21T11:00:00Z,30.3085,-88.1395,93.8,1111122 
DISL,ioos:station:DISL:CATA:1,2011-04-21T11:30:00Z,30.3085,-88.1395,93.0,1111122 
DISL,ioos:station:DISL:CATA:1,2011-04-21T12:00:00Z,30.3085,-88.1395,93.3,1111122 
DISL,ioos:station:DISL:CATA:1,2011-04-21T12:30:00Z,30.3085,-88.1395,93.1,1111122 
DISL,ioos:station:DISL:CATA:1,2011-04-21T13:00:00Z,30.3085,-88.1395,92.4,1111122 
DISL,ioos:station:DISL:CATA:1,2011-04-21T13:30:00Z,30.3085,-88.1395,94.7,1111122 
DISL,ioos:station:DISL:CATA:1,2011-04-21T14:00:00Z,30.3085,-88.1395,94.7,1111122 
DISL,ioos:station:DISL:CATA:1,2011-04-21T14:30:00Z,30.3085,-88.1395,95.1,1111122 
DISL,ioos:station:DISL:CATA:1,2011-04-21T15:00:00Z,30.3085,-88.1395,93.6,1111122 
DISL,ioos:station:DISL:CATA:1,2011-04-21T15:30:00Z,30.3085,-88.1395,87.2,1111122 
DISL,ioos:station:DISL:CATA:1,2011-04-21T16:00:00Z,30.3085,-88.1395,85.2,1111122 
DISL,ioos:station:DISL:CATA:1,2011-04-21T16:30:00Z,30.3085,-88.1395,84.0,1111122 
DISL,ioos:station:DISL:CATA:1,2011-04-21T17:00:00Z,30.3085,-88.1395,83.8,1111122 
DISL,ioos:station:DISL:CATA:1,2011-04-21T17:30:00Z,30.3085,-88.1395,80.5,1111122 
DISL,ioos:station:DISL:CATA:1,2011-04-21T18:00:00Z,30.3085,-88.1395,77.73,1111122 
DISL,ioos:station:DISL:CATA:1,2011-04-21T18:30:00Z,30.3085,-88.1395,77.96,1111122 
DISL,ioos:station:DISL:CATA:1,2011-04-21T19:00:00Z,30.3085,-88.1395,78.0,1111122 
DISL,ioos:station:DISL:CATA:1,2011-04-21T19:30:00Z,30.3085,-88.1395,77.76,1111122 
DISL,ioos:station:DISL:CATA:1,2011-04-21T20:00:00Z,30.3085,-88.1395,78.65,1111122 
DISL,ioos:station:DISL:CATA:1,2011-04-21T20:30:00Z,30.3085,-88.1395,76.05,1111122 
DISL,ioos:station:DISL:CATA:1,2011-04-21T21:00:00Z,30.3085,-88.1395,73.34,1111122 
DISL,ioos:station:DISL:CATA:1,2011-04-21T21:30:00Z,30.3085,-88.1395,77.35,1111122 